QARMAN (45263 NORAD) Tracking and Keplerian Element Data

This shows tracking and keplerian element data for the satellite.

Feedback or suggestion? Click here.




ElementValue
Catalog45263
NameQARMAN
Epoch Orbit11204
Epoch Day36.5322931
Epoch Year2022
RAAN206.9643
Inclination51.6115
Eccentricity0.0005832
Argument of Perigee268.7113
Mean Anonmoly91.3248
Mean Motion16.46296888
Decay Rate0.15337201
L11 45263U 98067RG 22036.53229310 .15337201 12572-4 33864-3 0 9998
L22 45263 51.6115 206.9643 0005832 268.7113 91.3248 16.46296888112040



Live tracking and technical data element details for QARMAN (NORAD 45263). QARMAN can be tracked NOW for your location showing map with azimuth and elevation plus other details from your city location.







IsCatalogInMostPopularTable: catalog: 45263, numindb: 289
Update: records affected: 1



GetName: 45263 QARMAN

Hit Count: updated at: Thu, 23 Jan 2025 17:44:46 GMT